�������l�o���
Date,Time,MP-1(��Sv/h),MP-2(��Sv/h),MP-3(��Sv/h),MP-4(��Sv/h),MP-5(��Sv/h),MP-6(��Sv/h),MP-7(��Sv/h),MP-8(��Sv/h),����,����(m/s),���J
2016/05/10,00:00,1.627,2.587,2.631,2.401,2.589,0.673,1.244,1.077,��쐼,7.3,��
2016/05/10,00:10,1.627,2.585,2.631,2.406,2.589,0.674,1.242,1.075,��쐼,7.2,�L
2016/05/10,00:20,1.628,2.583,2.631,2.404,2.582,0.676,1.243,1.075,��쐼,7.8,�L
2016/05/10,00:30,1.628,2.582,2.628,2.401,2.584,0.675,1.246,1.076,��쐼,7.6,�L
2016/05/10,00:40,1.628,2.580,2.626,2.404,2.580,0.674,1.240,1.075,��쐼,7.6,�L
2016/05/10,00:50,1.630,2.577,2.624,2.403,2.577,0.675,1.239,1.076,��,8.1,�L
2016/05/10,01:00,1.627,2.575,2.625,2.403,2.576,0.673,1.240,1.075,��,8.3,�L
2016/05/10,01:10,1.628,2.577,2.621,2.400,2.570,0.672,1.238,1.070,��,9.0,�L
2016/05/10,01:20,1.628,2.573,2.612,2.397,2.563,0.674,1.237,1.072,��,7.7,�L
2016/05/10,01:30,1.625,2.565,2.608,2.396,2.549,0.673,1.235,1.073,��쐼,6.2,�L
2016/05/10,01:40,1.622,2.560,2.597,2.387,2.536,0.673,1.234,1.067,��쐼,6.0,�L
2016/05/10,01:50,1.618,2.543,2.585,2.378,2.525,0.671,1.229,1.065,��,5.1,�L
2016/05/10,02:00,1.613,2.537,2.585,2.376,2.519,0.670,1.233,1.065,��,5.1,�L
2016/05/10,02:10,1.615,2.542,2.580,2.375,2.521,0.671,1.232,1.066,��,6.9,��
2016/05/10,02:20,1.612,2.538,2.582,2.380,2.523,0.671,1.229,1.067,��,6.9,��
2016/05/10,02:30,1.613,2.538,2.581,2.378,2.523,0.671,1.230,1.067,��,7.8,�L
2016/05/10,02:40,1.612,2.535,2.576,2.373,2.515,0.669,1.228,1.066,��,7.9,�L
2016/05/10,02:50,1.612,2.525,2.568,2.369,2.504,0.668,1.227,1.065,��,7.5,�L
2016/05/10,03:00,1.607,2.522,2.557,2.360,2.492,0.668,1.226,1.064,��,6.5,�L
2016/05/10,03:10,1.602,2.512,2.547,2.352,2.486,0.667,1.223,1.062,��,5.8,�L
2016/05/10,03:20,1.600,2.505,2.541,2.348,2.480,0.668,1.222,1.062,��,6.1,�L
2016/05/10,03:30,1.598,2.502,2.543,2.347,2.478,0.665,1.222,1.060,��,6.4,��
2016/05/10,03:40,1.595,2.503,2.543,2.341,2.474,0.666,1.221,1.060,��,6.3,�L
2016/05/10,03:50,1.595,2.502,2.538,2.340,2.477,0.665,1.222,1.059,��,5.4,�L
2016/05/10,04:00,1.593,2.503,2.539,2.339,2.473,0.665,1.222,1.060,��,4.9,��
2016/05/10,04:10,1.590,2.500,2.534,2.339,2.466,0.664,1.219,1.060,��쓌,6.1,�L
2016/05/10,04:20,1.595,2.498,2.530,2.336,2.469,0.663,1.220,1.060,��쓌,2.9,�L
2016/05/10,04:30,1.593,2.495,2.530,2.334,2.471,0.663,1.218,1.059,��쓌,4.1,��
2016/05/10,04:40,1.588,2.495,2.528,2.334,2.469,0.662,1.220,1.057,��쓌,3.6,��
2016/05/10,04:50,1.588,2.490,2.530,2.332,2.467,0.663,1.220,1.060,��쓌,4.1,�L
2016/05/10,05:00,1.590,2.492,2.526,2.333,2.464,0.661,1.218,1.060,��쓌,4.3,�L
2016/05/10,05:10,1.588,2.490,2.523,2.330,2.466,0.661,1.217,1.060,��쓌,4.3,�L
2016/05/10,05:20,1.587,2.490,2.522,2.328,2.459,0.658,1.217,1.059,��쓌,3.9,�L
2016/05/10,05:30,1.588,2.488,2.524,2.328,2.461,0.658,1.219,1.061,��쓌,3.4,��
2016/05/10,05:40,1.583,2.490,2.518,2.329,2.463,0.657,1.219,1.058,��쓌,2.3,�L
2016/05/10,05:50,1.583,2.485,2.520,2.325,2.459,0.656,1.219,1.057,��쓌,1.7,�L
2016/05/10,06:00,1.583,2.483,2.508,2.321,2.449,0.657,1.216,1.058,��,1.4,�L
2016/05/10,06:10,1.583,2.470,2.500,2.313,2.438,0.657,1.216,1.058,��쓌,1.9,�L
2016/05/10,06:20,1.580,2.463,2.492,2.305,2.431,0.662,1.216,1.055,��쓌,2.2,�L
2016/05/10,06:30,1.573,2.457,2.489,2.301,2.428,0.659,1.210,1.054,�쓌,2.0,�L
2016/05/10,06:40,1.573,2.453,2.487,2.298,2.423,0.658,1.211,1.053,�쓌,0.8,�L
2016/05/10,06:50,1.573,2.452,2.479,2.294,2.413,0.658,1.210,1.050,���쓌,1.9,�L
2016/05/10,07:00,1.570,2.447,2.480,2.291,2.408,0.656,1.208,1.050,��,0.9,�L
2016/05/10,07:10,1.567,2.443,2.469,2.283,2.405,0.655,1.207,1.051,���쓌,1.5,�L
2016/05/10,07:20,1.562,2.440,2.465,2.278,2.400,0.655,1.206,1.051,���k��,1.7,�L
2016/05/10,07:30,1.560,2.437,2.460,2.276,2.397,0.657,1.207,1.050,��,1.7,�L
2016/05/10,07:40,1.558,2.435,2.460,2.272,2.397,0.654,1.206,1.050,���쓌,3.4,�L
2016/05/10,07:50,1.557,2.433,2.458,2.272,2.393,0.655,1.204,1.049,-,CALM,�L
2016/05/10,08:00,1.553,2.432,2.453,2.266,2.386,0.654,1.203,1.049,-,CALM,�L
2016/05/10,08:10,1.550,2.428,2.447,2.262,2.380,0.654,1.204,1.047,�k,1.1,�L
2016/05/10,08:20,1.547,2.422,2.432,2.257,2.378,0.653,1.203,1.048,�k,1.2,�L
2016/05/10,08:30,1.543,2.418,2.421,2.251,2.370,0.652,1.200,1.045,�k,1.2,�L
2016/05/10,08:40,1.542,2.408,2.411,2.243,2.362,0.654,1.198,1.044,�k,2.0,�L
2016/05/10,08:50,1.540,2.403,2.408,2.236,2.353,0.650,1.197,1.044,�k,2.3,�L
2016/05/10,09:00,1.538,2.402,2.412,2.238,2.351,0.651,1.193,1.042,�k�k��,2.6,�L
2016/05/10,09:10,1.538,2.398,2.408,2.236,2.347,0.650,1.195,1.041,�k�k��,3.0,�L
2016/05/10,09:20,1.533,2.397,2.407,2.231,2.342,0.649,1.193,1.040,�k,3.7,�L
2016/05/10,09:30,1.533,2.392,2.397,2.228,2.341,0.649,1.192,1.039,�k�k��,3.8,�L
2016/05/10,09:40,1.530,2.390,2.398,2.223,2.334,0.647,1.193,1.041,�k,4.4,�L
2016/05/10,09:50,1.532,2.388,2.395,2.223,2.334,0.649,1.191,1.039,�k,4.1,�L
2016/05/10,10:00,1.533,2.390,2.407,2.224,2.333,0.649,1.193,1.038,�k,4.7,�L
2016/05/10,10:10,1.532,2.388,2.405,2.223,2.338,0.647,1.192,1.039,�k,5.3,�L
2016/05/10,10:20,1.532,2.388,2.401,2.222,2.335,0.646,1.191,1.037,�k,5.0,�L
2016/05/10,10:30,1.532,2.388,2.403,2.222,2.329,0.646,1.192,1.038,�k,5.1,�L
2016/05/10,10:40,1.530,2.383,2.395,2.220,2.322,0.644,1.187,1.039,�k,5.4,�L
2016/05/10,10:50,1.527,2.382,2.389,2.213,2.317,0.646,1.186,1.036,�k,6.1,�L
2016/05/10,11:00,1.527,2.380,2.387,2.213,2.311,0.644,1.184,1.035,�k,6.8,�L
2016/05/10,11:10,1.523,2.378,2.393,2.209,2.313,0.644,1.185,1.038,�k,5.9,�L
2016/05/10,11:20,1.525,2.377,2.388,2.208,2.311,0.645,1.185,1.036,�k,5.6,�L
2016/05/10,11:30,1.525,2.372,2.383,2.205,2.302,0.644,1.186,1.036,�k,6.2,�L
2016/05/10,11:40,1.520,2.373,2.385,2.204,2.299,0.643,1.183,1.035,�k�k��,6.0,�L
2016/05/10,11:50,1.520,2.375,2.384,2.206,2.298,0.643,1.183,1.034,�k,6.4,�L
2016/05/10,12:00,1.525,2.373,2.386,2.205,2.304,0.644,1.182,1.034,�k,6.3,�L
2016/05/10,12:10,1.520,2.372,2.383,2.206,2.303,0.642,1.184,1.036,�k,7.1,�L
2016/05/10,12:20,1.520,2.373,2.386,2.203,2.302,0.644,1.183,1.036,�k,6.7,�L
2016/05/10,12:30,1.522,2.377,2.381,2.205,2.302,0.644,1.184,1.036,�k,6.4,�L
2016/05/10,12:40,1.523,2.377,2.384,2.201,2.300,0.644,1.183,1.036,�k,6.2,�L
2016/05/10,12:50,1.522,2.372,2.383,2.205,2.300,0.644,1.184,1.036,�k,5.6,�L
2016/05/10,13:00,1.520,2.373,2.379,2.204,2.299,0.645,1.183,1.033,�k�k��,6.1,�L
2016/05/10,13:10,1.523,2.373,2.383,2.203,2.297,0.643,1.182,1.035,�k�k��,6.0,�L
2016/05/10,13:20,1.523,2.375,2.383,2.203,2.295,0.642,1.182,1.037,�k�k��,3.9,�L
2016/05/10,13:30,1.517,2.375,2.380,2.201,2.289,0.643,1.182,1.036,�k,4.2,�L
2016/05/10,13:40,1.520,2.370,2.377,2.199,2.284,0.643,1.184,1.035,�k�k��,5.5,�L
2016/05/10,13:50,1.518,2.368,2.381,2.197,2.286,0.644,1.184,1.033,�k,4.8,�L
2016/05/10,14:00,1.522,2.368,2.378,2.200,2.284,0.644,1.183,1.035,�k,5.7,�L
2016/05/10,14:10,1.523,2.373,2.380,2.199,2.285,0.645,1.183,1.035,�k,5.9,��
2016/05/10,14:20,1.525,2.370,2.375,2.201,2.285,0.643,1.184,1.035,�k,5.4,��
2016/05/10,14:30,1.523,2.368,2.372,2.199,2.286,0.644,1.183,1.035,�k,5.7,�L
2016/05/10,14:40,1.522,2.370,2.378,2.198,2.281,0.643,1.184,1.036,�k,5.4,��
2016/05/10,14:50,1.527,2.368,2.382,2.203,2.283,0.643,1.182,1.036,�k,6.4,��
2016/05/10,15:00,1.525,2.373,2.382,2.203,2.286,0.642,1.183,1.035,�k,6.5,��
2016/05/10,15:10,1.523,2.375,2.385,2.201,2.292,0.643,1.185,1.037,�k,6.2,��
2016/05/10,15:20,1.525,2.377,2.381,2.205,2.292,0.645,1.183,1.037,�k,6.1,��
2016/05/10,15:30,1.525,2.375,2.381,2.203,2.293,0.644,1.185,1.035,�k�k��,6.4,��
2016/05/10,15:40,1.523,2.373,2.377,2.198,2.288,0.643,1.183,1.035,�k�k��,6.7,�L
2016/05/10,15:50,1.520,2.373,2.375,2.195,2.287,0.646,1.183,1.036,�k�k��,7.6,�L
2016/05/10,16:00,1.520,2.365,2.371,2.196,2.284,0.647,1.182,1.034,�k�k��,7.3,�L
2016/05/10,16:10,1.517,2.365,2.371,2.195,2.282,0.646,1.182,1.037,�k,6.6,��
2016/05/10,16:20,1.522,2.365,2.375,2.198,2.283,0.644,1.184,1.035,�k,6.1,��
2016/05/10,16:30,1.518,2.370,2.374,2.195,2.284,0.643,1.182,1.037,�k,6.6,��
2016/05/10,16:40,1.523,2.370,2.375,2.200,2.285,0.644,1.183,1.036,�k,6.7,��
2016/05/10,16:50,1.522,2.368,2.380,2.199,2.288,0.645,1.182,1.036,�k,6.5,��
2016/05/10,17:00,1.522,2.370,2.377,2.199,2.289,0.645,1.181,1.037,�k,7.7,��
2016/05/10,17:10,1.522,2.372,2.379,2.196,2.289,0.643,1.183,1.035,�k�k��,7.1,��
2016/05/10,17:20,1.520,2.373,2.375,2.196,2.285,0.643,1.182,1.036,�k�k��,7.0,��
2016/05/10,17:30,1.518,2.370,2.372,2.192,2.281,0.644,1.184,1.036,�k,7.5,��
2016/05/10,17:40,1.520,2.372,2.372,2.194,2.281,0.643,1.184,1.034,�k�k��,6.7,�L
2016/05/10,17:50,1.518,2.365,2.370,2.190,2.283,0.645,1.182,1.035,�k�k��,6.4,�L
2016/05/10,18:00,1.517,2.370,2.369,2.193,2.283,0.645,1.182,1.035,�k�k��,7.1,�L
2016/05/10,18:10,1.515,2.370,2.368,2.191,2.283,0.644,1.181,1.034,�k�k��,7.2,��
2016/05/10,18:20,1.513,2.363,2.366,2.190,2.278,0.644,1.182,1.035,�k�k��,7.7,�L
2016/05/10,18:30,1.513,2.362,2.363,2.187,2.275,0.643,1.180,1.035,�k�k��,8.2,�L
2016/05/10,18:40,1.513,2.362,2.366,2.187,2.275,0.643,1.181,1.036,�k�k��,7.6,��
2016/05/10,18:50,1.513,2.367,2.369,2.189,2.280,0.643,1.180,1.034,�k�k��,8.5,��
2016/05/10,19:00,1.513,2.365,2.363,2.187,2.280,0.642,1.180,1.035,�k�k��,7.6,�L
2016/05/10,19:10,1.513,2.367,2.361,2.188,2.279,0.643,1.183,1.036,�k�k��,7.1,��
2016/05/10,19:20,1.517,2.368,2.367,2.192,2.276,0.644,1.180,1.037,�k�k��,6.6,��
2016/05/10,19:30,1.515,2.363,2.369,2.188,2.277,0.643,1.181,1.038,�k�k��,6.3,�L
2016/05/10,19:40,1.513,2.363,2.367,2.193,2.281,0.644,1.180,1.038,�k�k��,7.1,�L
2016/05/10,19:50,1.515,2.362,2.365,2.189,2.278,0.644,1.181,1.038,�k�k��,7.9,�L
2016/05/10,20:00,1.512,2.363,2.368,2.191,2.279,0.644,1.180,1.038,�k�k��,7.4,�L
2016/05/10,20:10,1.512,2.362,2.366,2.189,2.278,0.643,1.181,1.036,�k�k��,7.6,��
2016/05/10,20:20,1.515,2.363,2.367,2.188,2.280,0.644,1.180,1.038,�k�k��,7.9,�L
2016/05/10,20:30,1.515,2.367,2.366,2.191,2.281,0.643,1.181,1.037,�k�k��,7.8,�L
2016/05/10,20:40,1.515,2.370,2.367,2.193,2.284,0.646,1.183,1.037,�k�k��,7.4,�L
2016/05/10,20:50,1.518,2.372,2.372,2.193,2.283,0.645,1.183,1.037,�k�k��,8.7,��
2016/05/10,21:00,1.517,2.373,2.373,2.195,2.285,0.645,1.182,1.040,�k�k��,7.9,��
2016/05/10,21:10,1.517,2.372,2.372,2.198,2.290,0.645,1.183,1.038,�k�k��,8.0,��
2016/05/10,21:20,1.518,2.373,2.375,2.194,2.291,0.645,1.184,1.040,�k��,7.3,�L
2016/05/10,21:30,1.522,2.373,2.377,2.197,2.295,0.648,1.185,1.040,�k�k��,7.1,�L
2016/05/10,21:40,1.523,2.373,2.376,2.196,2.290,0.644,1.185,1.039,�k��,7.9,�L
2016/05/10,21:50,1.523,2.370,2.374,2.195,2.293,0.646,1.183,1.038,�k�k��,6.6,�L
2016/05/10,22:00,1.518,2.368,2.373,2.197,2.293,0.645,1.183,1.038,�k��,7.4,�L
2016/05/10,22:10,1.520,2.367,2.370,2.196,2.289,0.644,1.185,1.039,�k�k��,7.0,�L
2016/05/10,22:20,1.522,2.370,2.371,2.198,2.290,0.647,1.185,1.038,�k�k��,7.3,�L
2016/05/10,22:30,1.520,2.373,2.369,2.195,2.286,0.646,1.183,1.039,�k��,8.5,�L
2016/05/10,22:40,1.518,2.370,2.366,2.193,2.285,0.644,1.183,1.037,�k��,7.3,�L
2016/05/10,22:50,1.518,2.375,2.373,2.197,2.285,0.645,1.185,1.038,�k��,7.2,��
2016/05/10,23:00,1.520,2.373,2.369,2.197,2.289,0.648,1.186,1.039,�k�k��,8.1,��
2016/05/10,23:10,1.522,2.373,2.376,2.198,2.292,0.647,1.186,1.036,�k��,7.5,��
2016/05/10,23:20,1.520,2.375,2.375,2.201,2.287,0.647,1.188,1.039,�k�k��,6.8,�L
2016/05/10,23:30,1.523,2.375,2.380,2.201,2.291,0.647,1.185,1.037,�k�k��,8.0,�L
2016/05/10,23:40,1.523,2.378,2.381,2.204,2.299,0.648,1.186,1.040,�k�k��,7.3,��
2016/05/10,23:50,1.525,2.383,2.379,2.203,2.302,0.647,1.186,1.039,�k�k��,7.6,�L
